Vertical_Velocity
-0 -3 -0 -1 -3 -1 0 -0 0 -1 -1 -1 -2 -3 -4 -2 -1 -2 -3 -3 -2 1 0 -2 -1 -4 1 -4 -3 -2 -3 -1 -2 4 4 2 -4 0 2 0 3 2 -2
0 1 -1 -1 -1 -4 -1 -2 -2 -0 -1 -1 -2 -2 -0 -3 -2 -3 -3 -3 -6 1 -1 -5 1 -3 5 -3 -3 -3 -6 -0 3 1 4 3 3 3 -2 3 3 -4 -6
1 -0 3 -0 -3 -0 -0 0 -2 -2 -1 -1 -0 2 0 -0 -2 -1 -2 2 -1 -3 -1 0 0 -1 4 -2 -7 -3 -3 -0 -1 -1 -1 -4 0 -1 3 -3 1 0 6
-2 0 -0 -3 -0 -2 0 -2 -0 -1 0 0 -1 1 1 -2 -0 1 -1 -3 1 -1 -6 -2 -3 -1 1 1 -5 -0 -2 3 -1 -2 -2 -1 -3 0 0 -3 -0 -1 -5
1 -1 -1 1 -0 -2 1 -1 0 -0 3 2 2 -1 -1 -2 0 -2 0 -1 1 0 -2 4 -4 -3 -2 0 -4 -1 -0 0 1 -3 -1 -5 -2 1 1 3 2 -0 2
0 -6 -1 1 4 1 -2 -1 -1 -0 2 -2 -2 -3 -1 -3 -1 1 4 1 3 2 2 -0 1 -2 -2 -1 -4 -2 -2 2 0 -2 -1 1 -1 1 2 2 0 -1 -5
-3 -0 1 1 1 1 -1 2 0 2 1 2 4 3 2 -2 0 2 -5 3 -4 -5 4 5 -1 2 -1 -1 -4 -1 -2 -2 2 -3 -1 -0 -1 -0 -0 -0 0 -2 -4
-0 -1 2 -1 0 0 2 -2 -0 0 -2 -1 -0 -1 -1 0 -2 2 2 -2 -1 1 -0 4 -1 1 0 -0 -1 -3 -0 -1 -0 1 -1 -1 0 -1 -2 0 -1 2 -0
-0 1 1 -1 2 0 1 1 1 1 5 3 1 -1 -5 -1 3 -4 -1 -1 -5 1 -0 1 2 1 2 -1 -2 -2 -2 0 -1 1 -0 -2 -2 -2 -2 -2 -1 -3 1
-2 -3 0 2 0 -3 4 -1 -1 -4 -1 1 4 -5 4 -8 -5 -2 0 -2 1 -0 -3 2 1 0 -0 1 -1 -2 -1 0 -1 -1 1 -1 -3 -1 -3 -4 0 1 -1
0 4 -2 2 2 2 3 3 4 -4 -4 -0 -1 -5 -7 0 -3 2 -0 -3 -5 -1 -4 -1 -1 -1 -0 1 -1 -2 -2 1 -0 -3 -2 1 -0 -3 -2 -4 -2 -1 -2
1 -2 2 5 -1 -1 -2 0 -3 5 0 -5 -3 -0 0 -2 1 -1 3 -3 -0 -0 -1 -2 -1 -2 -1 -1 -2 -2 -2 0 2 1 1 0 1 -0 -1 -2 -4 -2 0
-0 1 -2 -4 -1 -4 1 1 1 1 -1 5 2 1 -0 1 -1 -3 0 -1 -1 1 1 -1 1 1 -1 -3 -2 -2 -1 -0 0 2 -0 -1 2 3 0 1 -2 -4 -2
-0 2 3 3 7 9 5 0 4 -2 -3 -4 1 5 1 2 2 -1 0 -2 -0 2 -1 0 1 2 1 -1 -2 -3 -2 -2 0 -0 3 3 -1 -3 1 1 1 -1 -2
0 -1 3 3 -1 1 -0 3 3 1 -0 -9 -2 3 4 -1 0 0 -0 -1 1 2 2 0 1 2 1 3 1 4 1 -0 1 0 -1 -0 -1 2 -1 -1 -1 1 -1
-2 -1 2 -5 -2 -3 -4 3 3 -6 5 0 -1 -3 2 -1 -5 -4 -2 -1 -2 -1 2 1 1 5 3 4 4 -1 1 -0 0 -1 -0 0 -2 -3 -2 1 1 -2 -0
-2 2 5 4 9 1 -2 -2 4 1 0 -5 -2 -3 -2 -6 -7 -4 -3 -0 -1 -4 -2 -1 1 0 0 -0 3 3 1 1 1 1 -0 0 3 3 1 -3 -2 1 -2
-3 1 5 -2 10 -1 -0 -4 -3 3 -1 -1 1 2 3 -3 -1 -0 -2 -2 -4 -3 -3 -4 -3 -2 -4 3 4 3 1 -1 -0 -3 -0 -2 -2 1 2 5 3 -4 -3
-2 -6 -4 50 -7 12 24 -14 -5 -6 -10 -2 2 1 -2 -1 0 -3 0 2 1 -1 -2 -0 0 -1 2 3 1 1 4 5 -2 1 -2 2 -2 -2 0 0 -1 4 -0
-1 -8 -3 -0 -10 25 1 3 2 -2 -2 1 -0 -6 -5 -5 -5 -4 -1 -1 -2 -4 -4 -3 -3 -3 -11 -9 -5 -3 -0 -2 1 -1 -3 -2 -0 -1 -2 -2 1 2 3
-4 -2 15 17 7 0 -1 -4 2 -2 0 -2 -5 -4 -4 -2 0 0 -3 -3 -4 -5 -5 -6 -1 -5 -2 -6 -6 1 1 -0 -2 -0 -4 -4 -2 -2 -4 -3 -1 -0 2
15 5 7 -1 -3 2 3 4 0 -1 2 -2 -4 -6 -6 -5 -3 -3 -3 -4 -2 1 -2 -7 -9 -5 -5 -5 -9 -11 -7 20 1 2 -5 -7 -2 -0 -4 -3 -0 0 0
-1 -1 -1 -1 2 1 -0 -2 -5 -8 -5 -3 1 3 0 -1 -5 -8 -8 -8 -8 -8 -6 -6 -4 -8 -5 -2 -5 -11 -9 -10 1 20 1 2 -3 -5 -4 -3 -2 -0 2
-3 -5 -2 -2 -4 -1 -4 -6 -6 -5 -6 -10 -10 -8 -5 -3 2 3 3 3 3 -3 -5 -5 -7 -8 -11 -12 -5 -8 -7 -17 -20 -16 13 12 8 3 1 -1 -1 -0 0
-6 -6 -6 -6 -0 -0 4 5 1 -1 -0 4 4 4 3 3 3 1 1 -1 -2 0 -1 0 -3 -6 -5 -6 -8 -7 -4 -6 -6 -15 -12 8 11 -0 4 2 6 3 -0
-4 1 -3 -3 -1 -0 3 3 2 3 3 4 3 3 2 1 -1 -1 0 1 1 0 -3 -6 -5 -5 -3 -2 -3 -1 -1 -3 1 -1 -9 5 -7 22 7 -5 -0 4 6
Height
5853 5850 5849 5848 5846 5845 5844 5842 5841 5839 5838 5838 5837 5835 5834 5833 5831 5830 5829 5828 5826 5824 5822 5821 5819 5817 5815 5815 5814 5813 5812 5811 5812 5812 5812 5811 5810 5809 5810 5810 5810 5810 5812
5850 5849 5847 5845 5844 5842 5841 5840 5839 5839 5838 5837 5836 5836 5834 5834 5833 5832 5830 5828 5826 5825 5823 5821 5818 5817 5815 5813 5813 5811 5809 5809 5810 5810 5809 5809 5807 5807 5806 5807 5806 5806 5807
5847 5846 5844 5843 5841 5839 5838 5838 5838 5838 5838 5838 5838 5837 5836 5834 5833 5832 5830 5829 5827 5825 5823 5821 5818 5816 5815 5813 5811 5809 5807 5807 5808 5808 5807 5805 5803 5804 5803 5803 5803 5801 5801
5844 5843 5842 5841 5838 5838 5837 5837 5838 5838 5838 5838 5837 5837 5836 5834 5833 5831 5829 5828 5826 5824 5822 5820 5818 5816 5813 5813 5810 5808 5807 5806 5806 5805 5803 5801 5800 5799 5799 5799 5799 5800 5799
5839 5840 5840 5838 5838 5838 5837 5837 5837 5836 5837 5837 5836 5836 5834 5833 5831 5829 5828 5827 5825 5823 5820 5819 5816 5815 5813 5810 5808 5806 5805 5805 5803 5801 5801 5798 5797 5797 5797 5797 5796 5796 5795
5836 5839 5838 5838 5837 5837 5836 5835 5836 5836 5837 5835 5835 5833 5832 5830 5829 5827 5826 5825 5822 5821 5818 5817 5815 5812 5811 5809 5805 5804 5803 5802 5801 5799 5797 5796 5795 5795 5795 5794 5794 5794 5795
5835 5835 5835 5836 5836 5836 5836 5835 5835 5836 5835 5834 5832 5831 5830 5829 5827 5825 5823 5822 5820 5818 5816 5814 5812 5810 5808 5806 5803 5800 5800 5799 5797 5797 5795 5794 5793 5792 5791 5790 5791 5792 5792
5832 5832 5834 5834 5835 5835 5835 5835 5835 5835 5833 5832 5831 5830 5828 5826 5824 5822 5820 5819 5817 5814 5813 5811 5808 5806 5804 5802 5799 5797 5796 5795 5794 5792 5792 5791 5788 5787 5787 5787 5786 5786 5786
5829 5830 5832 5834 5835 5835 5834 5834 5833 5833 5832 5831 5830 5828 5826 5824 5822 5820 5818 5816 5813 5811 5809 5807 5804 5802 5800 5798 5795 5793 5793 5792 5789 5788 5787 5786 5785 5783 5782 5783 5783 5782 5782
5828 5830 5832 5833 5833 5832 5832 5832 5832 5831 5830 5829 5827 5825 5822 5821 5819 5816 5814 5812 5809 5806 5804 5802 5799 5797 5796 5793 5792 5789 5787 5786 5785 5783 5782 5780 5779 5778 5777 5776 5776 5777 5778
5829 5830 5830 5831 5831 5830 5830 5829 5829 5828 5827 5826 5824 5821 5819 5817 5814 5811 5809 5807 5805 5802 5799 5796 5794 5792 5790 5788 5786 5784 5782 5780 5779 5777 5776 5775 5773 5772 5771 5771 5770 5770 5771
5828 5828 5829 5829 5830 5829 5828 5828 5826 5825 5824 5822 5820 5818 5816 5813 5810 5806 5804 5802 5799 5797 5793 5791 5788 5785 5783 5780 5779 5776 5774 5773 5772 5770 5769 5768 5768 5767 5766 5765 5765 5764 5764
5826 5826 5828 5826 5827 5826 5825 5825 5823 5822 5821 5819 5817 5814 5812 5809 5805 5802 5800 5796 5793 5791 5787 5784 5781 5778 5775 5773 5771 5769 5767 5765 5764 5764 5763 5762 5762 5761 5760 5758 5758 5758 5757
5825 5826 5827 5825 5824 5824 5823 5821 5820 5817 5814 5812 5811 5810 5807 5804 5802 5797 5793 5789 5786 5784 5780 5777 5773 5770 5768 5766 5764 5762 5760 5759 5757 5756 5756 5756 5755 5754 5754 5753 5752 5751 5751
5823 5823 5823 5824 5821 5820 5819 5815 5813 5814 5811 5809 5806 5803 5801 5798 5795 5791 5786 5781 5779 5775 5772 5770 5767 5764 5762 5761 5759 5757 5755 5753 5751 5749 5748 5747 5747 5746 5746 5745 5745 5745 5744
5821 5821 5819 5817 5817 5815 5815 5813 5812 5811 5807 5803 5800 5797 5794 5791 5786 5782 5777 5772 5768 5766 5763 5762 5760 5758 5756 5753 5751 5748 5747 5744 5742 5740 5739 5737 5736 5736 5735 5735 5735 5734 5735
5820 5818 5817 5815 5812 5809 5809 5809 5806 5802 5799 5794 5792 5789 5785 5781 5778 5774 5768 5764 5760 5756 5754 5752 5750 5748 5745 5742 5741 5739 5737 5734 5732 5730 5728 5726 5726 5725 5724 5723 5723 5723 5723
5816 5815 5812 5809 5807 5804 5800 5798 5796 5795 5789 5785 5781 5778 5775 5772 5768 5765 5759 5756 5752 5749 5745 5742 5740 5737 5734 5731 5729 5727 5724 5721 5718 5716 5714 5713 5712 5711 5711 5710 5709 5708 5708
5811 5810 5807 5793 5800 5794 5790 5788 5789 5785 5781 5777 5773 5770 5765 5760 5757 5754 5751 5748 5745 5740 5737 5733 5729 5725 5723 5720 5717 5713 5710 5706 5702 5699 5696 5695 5693 5692 5692 5693 5693 5693 5692
5805 5803 5804 5800 5796 5788 5786 5784 5781 5777 5775 5771 5767 5761 5756 5751 5746 5743 5740 5737 5732 5728 5723 5719 5715 5712 5708 5705 5701 5698 5695 5690 5686 5682 5679 5676 5674 5672 5670 5670 5671 5673 5673
5802 5800 5798 5795 5788 5785 5779 5775 5772 5768 5765 5760 5755 5750 5745 5741 5737 5732 5726 5720 5715 5711 5707 5703 5699 5695 5689 5684 5681 5677 5673 5669 5664 5659 5656 5654 5651 5649 5648 5647 5646 5647 5649
5795 5795 5793 5787 5781 5777 5773 5769 5765 5761 5755 5748 5742 5739 5734 5729 5723 5718 5713 5707 5701 5696 5689 5682 5675 5671 5666 5659 5653 5649 5647 5648 5643 5636 5630 5626 5622 5619 5618 5619 5620 5622 5623
5792 5790 5786 5782 5777 5773 5768 5762 5755 5750 5745 5741 5735 5728 5723 5718 5713 5707 5700 5693 5685 5678 5671 5663 5655 5648 5642 5636 5629 5622 5618 5618 5616 5614 5608 5602 5599 5593 5590 5590 5591 5592 5595
5785 5782 5778 5774 5770 5765 5759 5752 5746 5740 5734 5728 5723 5717 5712 5707 5701 5694 5686 5679 5672 5664 5655 5647 5638 5630 5622 5615 5609 5600 5593 5586 5583 5586 5583 5576 5570 5565 5563 5561 5563 5564 5566
5776 5773 5770 5766 5762 5757 5753 5747 5742 5736 5731 5725 5720 5714 5708 5701 5693 5685 5675 5665 5655 5644 5634 5624 5614 5604 5596 5588 5580 5574 5567 5559 5551 5545 5549 5548 5544 5535 5532 5531 5534 5536 5539
5770 5767 5764 5759 5754 5749 5744 5739 5734 5729 5723 5717 5710 5703 5694 5685 5674 5664 5652 5641 5631 5621 5610 5599 5587 5578 5568 5558 5547 5539 5532 5526 5520 5512 5507 5513 5506 5510 5504 5496 5500 5505 5509